This is the latest recevied weather packets stored in our database for station/object AD8IZ-13. If no packets are shown the sender has not sent any weather packets the latest 10 day(s).
| Time | Temp. | Humidity | Pressure | Rain* | Wind** | Luminosity | Snow |
|---|---|---|---|---|---|---|---|
| 1777472719 | 12.78° C | 98% | 1010.5 hPa | 0 mm | - | 60 W/m² | - |
| 1777472118 | 12.78° C | 98% | 1010.3 hPa | 0 mm | - | 69 W/m² | - |
| 1777471518 | 12.78° C | 99% | 1010.3 hPa | 0 mm | - | 119 W/m² | - |
| 1777470920 | 12.78° C | 99% | 1010.5 hPa | 0 mm | - | 62 W/m² | - |
| 1777470319 | 12.78° C | 99% | 1010.5 hPa | 0 mm | - | 75 W/m² | - |
| 1777469719 | 12.78° C | 99% | 1010.6 hPa | 0 mm | - | 111 W/m² | - |
| 1777469120 | 12.78° C | 99% | 1010.6 hPa | 0 mm | - | 111 W/m² | - |
| 1777468519 | 12.78° C | 99% | 1010.8 hPa | 0 mm | - | 92 W/m² | - |
| 1777467921 | 12.78° C | 99% | 1010.9 hPa | 0 mm | - | 110 W/m² | - |
| 1777467320 | 12.78° C | 98% | 1011 hPa | 0 mm | - | 80 W/m² | - |
| 1777466720 | 12.78° C | 98% | 1011 hPa | 0 mm | - | 63 W/m² | - |
| 1777466120 | 12.78° C | 98% | 1011.1 hPa | 0 mm | - | 37 W/m² | - |
| 1777465521 | 12.78° C | 98% | 1011.1 hPa | 0 mm | - | 27 W/m² | - |
| 1777464921 | 12.78° C | 98% | 1010.9 hPa | 0 mm | - | 29 W/m² | - |
| 1777464321 | 12.78° C | 98% | 1010.8 hPa | 0 mm | - | 31 W/m² | - |
| 1777463721 | 12.22° C | 98% | 1010.7 hPa | 0 mm | - | 24 W/m² | - |
| 1777463119 | 12.22° C | 98% | 1010.5 hPa | 0 mm | - | 23 W/m² | - |
| 1777462518 | 12.22° C | 98% | 1010.4 hPa | 0 mm | - | 25 W/m² | - |
| 1777461920 | 12.22° C | 98% | 1010.4 hPa | 0 mm | - | 28 W/m² | - |
| 1777461320 | 12.22° C | 98% | 1010.5 hPa | 0 mm | - | 17 W/m² | - |
| 1777460719 | 12.22° C | 98% | 1010.5 hPa | 0 mm | - | 8 W/m² | - |
| 1777460119 | 12.22° C | 98% | 1010.5 hPa | 0 mm | - | 4 W/m² | - |
| 1777459521 | 12.22° C | 98% | 1010.7 hPa | 0 mm | - | 1 W/m² | - |
| 1777458920 | 12.22° C | 98% | 1010.9 hPa | 0 mm | - | 1 W/m² | - |
| 1777458317 | 12.22° C | 98% | 1011.5 hPa | 0 mm | - | 0 W/m² | - |
* Rain latest hour (hover to see other rain measurements)
** Current wind speed in m/s (hover to see current wind gust speed)